Starlink 1767

operational
NORAD ID: 46345 Int'l Des: 2020-062 Owner: SPXS Country: US Constellation: starlink
LEOCIRCULAR

Über Starlink 1767

Beschreibung wird geladen...

Live-Position

3D-Globus wird geladen...

Nächste Überflüge

Höhenverlauf

Altitude vs Time

uPlot chart will show altitude changes over time

Zweizeiliger Elementsatz

1 46345U 20062W 25304.66668980 .00179968 00000-0 30607-2 0 9993
2 46345 53.0457 212.7433 0012349 69.6689 105.6985 15.50229171 5915
Epoch: 31. Okt. 2025 • Age: 3 hours

Aktueller Status

Höhe 433.5 km
Geschwindigkeit 7.65 km/s
Subsatellitenpunkt -32.63°S, 90.93°E
Startdatum 3. Sept. 2020
Alter 5.1 years
Typ internet

Technische Details

Klassifizierung Payload
Masse 260.00 kg
Trockenmasse 248.00 kg
Gesamtmasse 260.00 kg
Länge 0.20 m
Durchmesser 2.80 m
Spannweite 9.00 m
Form Box + pan
Hersteller SPXS
Bus-Typ Starlink
Phasenstatus In Orbit
Besitzer/Staat SPXS/US

Große Konstellationen

Loading constellations...